timestamp,surface_pressure_avg,surface_temp_avg,battery_voltage,lat,long
2023-07-23 00:09:00+00:00,263.9781,19.7,12.81,47.84626,-54.09684
2023-07-23 00:19:00+00:00,268.9313,19.65,12.73,47.84626,-54.09684
2023-07-23 00:29:00+00:00,273.8214,19.6,12.73,47.84626,-54.09684
2023-07-23 00:39:00+00:00,279.4847,19.5,12.73,47.84626,-54.09684
2023-07-23 00:49:00+00:00,283.3447,19.54,12.73,47.84626,-54.09684
2023-07-23 00:59:00+00:00,287.283,19.6,12.73,47.84626,-54.09684
2023-07-23 01:09:00+00:00,295.1664,19.58,12.73,47.84626,-54.09684
2023-07-23 01:19:00+00:00,303.6664,19.5,12.73,47.84626,-54.09684
2023-07-23 01:29:00+00:00,309.5996,19.51,12.73,47.84626,-54.09684
2023-07-23 01:39:00+00:00,312.8098,19.58,12.73,47.84626,-54.09684
2023-07-23 01:49:00+00:00,317.353,19.5,12.73,47.84626,-54.09684
2023-07-23 01:59:00+00:00,323.3697,19.5,12.73,47.84626,-54.09684
2023-07-23 02:09:00+00:00,328.2097,19.5,12.73,47.84626,-54.09684
2023-07-23 02:19:00+00:00,332.4563,19.5,12.73,47.84626,-54.09684
2023-07-23 02:29:00+00:00,336.7814,19.5,12.73,47.84626,-54.09684
2023-07-23 02:39:00+00:00,338.7347,19.5,12.73,47.84626,-54.09684
2023-07-23 02:49:00+00:00,338.6945,19.5,12.73,47.84626,-54.09684
2023-07-23 02:59:00+00:00,338.4497,19.5,12.73,47.84626,-54.09684
2023-07-23 03:09:00+00:00,336.8396,19.4,12.73,47.84626,-54.09684
2023-07-23 03:19:00+00:00,334.0247,19.47,12.73,47.84626,-54.09684
2023-07-23 03:29:00+00:00,332.6029,19.5,12.73,47.84626,-54.09684
2023-07-23 03:39:00+00:00,332.0197,19.59,12.73,47.84626,-54.09684
2023-07-23 03:49:00+00:00,332.6497,19.66,12.73,47.84626,-54.09684
2023-07-23 03:59:00+00:00,330.1597,19.8,12.73,47.84626,-54.09684
2023-07-23 04:09:00+00:00,325.1763,19.96,12.73,47.84626,-54.09684
2023-07-23 04:19:00+00:00,322.8497,20.13,12.65,47.84626,-54.09684
2023-07-23 04:29:00+00:00,320.498,20.2,12.65,47.84626,-54.09684
2023-07-23 04:39:00+00:00,316.0514,20.28,12.65,47.84626,-54.09684
2023-07-23 04:49:00+00:00,311.5013,20.3,12.65,47.84626,-54.09684
2023-07-23 04:59:00+00:00,309.843,20.32,12.65,47.84626,-54.09684
2023-07-23 05:09:00+00:00,303.568,20.38,12.65,47.84626,-54.09684
2023-07-23 05:19:00+00:00,296.8846,20.4,12.65,47.84626,-54.09684
2023-07-23 05:29:00+00:00,293.063,20.4,12.65,47.84626,-54.09684
2023-07-23 05:39:00+00:00,287.218,20.4,12.65,47.84626,-54.09684
2023-07-23 05:49:00+00:00,277.4431,20.46,12.65,47.84626,-54.09684
2023-07-23 05:59:00+00:00,269.7014,20.48,12.65,47.84626,-54.09684
2023-07-23 06:09:00+00:00,266.308,20.48,12.65,47.84626,-54.09684
2023-07-23 06:19:00+00:00,259.3314,20.49,12.65,47.84626,-54.09684
2023-07-23 06:29:00+00:00,247.6198,20.58,12.65,47.84626,-54.09684
2023-07-23 06:39:00+00:00,240.1697,20.66,12.65,47.84626,-54.09684
2023-07-23 06:49:00+00:00,236.5648,20.65,12.65,47.84626,-54.09684
2023-07-23 06:59:00+00:00,228.7997,20.69,12.65,47.84626,-54.09684
2023-07-23 07:09:00+00:00,219.0231,20.79,12.65,47.84626,-54.09684
2023-07-23 07:19:00+00:00,215.4848,20.8,12.65,47.84626,-54.09684
2023-07-23 07:29:00+00:00,210.9164,20.79,12.65,47.84626,-54.09684
2023-07-23 07:39:00+00:00,203.2681,20.84,12.65,47.84626,-54.09684
2023-07-23 07:49:00+00:00,199.1131,20.96,12.65,47.84626,-54.09684
2023-07-23 07:59:00+00:00,197.2731,21.0,12.65,47.84626,-54.09684
2023-07-23 08:09:00+00:00,193.9365,21.05,12.65,47.84626,-54.09684
2023-07-23 08:19:00+00:00,193.9082,21.09,12.65,47.84626,-54.09684
2023-07-23 08:29:00+00:00,195.0697,21.09,12.65,47.84626,-54.09684
2023-07-23 08:39:00+00:00,193.5681,21.1,12.65,47.84626,-54.09684
2023-07-23 08:49:00+00:00,193.4298,21.11,12.65,47.84626,-54.09684
2023-07-23 08:59:00+00:00,194.1014,21.2,12.65,47.84626,-54.09684
2023-07-23 09:09:00+00:00,195.2364,21.2,12.65,47.84626,-54.09684
2023-07-23 09:19:00+00:00,196.5047,21.28,12.65,47.84626,-54.09684
2023-07-23 09:29:00+00:00,198.5281,21.3,12.65,47.84626,-54.09684
2023-07-23 09:39:00+00:00,201.5881,21.3,12.65,47.84626,-54.09684
2023-07-23 09:49:00+00:00,203.7014,21.3,12.65,47.84626,-54.09684
2023-07-23 09:59:00+00:00,205.3398,21.3,12.65,47.84626,-54.09684
2023-07-23 10:09:00+00:00,209.2281,21.3,12.65,47.84626,-54.09684
2023-07-23 10:19:00+00:00,215.1981,21.2,12.65,47.84626,-54.09684
2023-07-23 10:29:00+00:00,218.8898,21.2,12.65,47.84626,-54.09684
2023-07-23 10:39:00+00:00,221.9098,21.1,12.65,47.84626,-54.09684
2023-07-23 10:49:00+00:00,226.588,21.1,12.65,47.84626,-54.09684
2023-07-23 10:59:00+00:00,228.9598,21.09,12.65,47.84626,-54.09684
2023-07-23 11:09:00+00:00,229.4731,20.9,12.65,47.84626,-54.09684
2023-07-23 11:19:00+00:00,233.2514,20.7,12.57,47.84626,-54.09684
2023-07-23 11:29:00+00:00,236.168,20.63,12.57,47.84626,-54.09684
2023-07-23 11:39:00+00:00,237.5447,20.6,12.57,47.84626,-54.09684
2023-07-23 11:49:00+00:00,241.6098,20.5,12.57,47.84626,-54.09684
2023-07-23 11:59:00+00:00,245.7581,20.3,12.57,47.84626,-54.09684
2023-07-23 12:09:00+00:00,250.1597,20.0,12.57,47.84626,-54.09684
2023-07-23 12:19:00+00:00,254.2048,19.8,12.57,47.84626,-54.09684
2023-07-23 12:29:00+00:00,260.3781,19.7,12.57,47.84626,-54.09684
2023-07-23 12:39:00+00:00,266.9114,19.73,12.57,47.84626,-54.09684
2023-07-23 12:49:00+00:00,272.2731,19.68,12.57,47.84626,-54.09684
2023-07-23 12:59:00+00:00,275.4415,19.2,12.57,47.84626,-54.09684
2023-07-23 13:09:00+00:00,279.5447,19.49,12.57,47.84626,-54.09684
2023-07-23 13:19:00+00:00,285.8547,19.0,12.57,47.84626,-54.09684
2023-07-23 13:29:00+00:00,289.5798,19.1,12.57,47.84626,-54.09684
2023-07-23 13:39:00+00:00,291.8113,18.79,12.57,47.84626,-54.09684
2023-07-23 13:49:00+00:00,299.7864,18.1,12.57,47.84626,-54.09684
2023-07-23 13:59:00+00:00,308.143,17.88,12.57,47.84626,-54.09684
2023-07-23 14:09:00+00:00,307.5814,18.1,12.57,47.84626,-54.09684
2023-07-23 14:19:00+00:00,306.7863,17.86,12.65,47.84626,-54.09684
2023-07-23 14:29:00+00:00,315.1797,17.57,12.65,47.84626,-54.09684
2023-07-23 14:39:00+00:00,320.7147,17.85,12.65,47.84626,-54.09684
2023-07-23 14:49:00+00:00,320.753,17.9,12.65,47.84626,-54.09684
2023-07-23 14:59:00+00:00,320.1564,17.5,12.65,47.84626,-54.09684
2023-07-23 15:09:00+00:00,323.2029,17.56,12.65,47.84626,-54.09684
2023-07-23 15:19:00+00:00,321.8397,17.74,12.97,47.84626,-54.09684
2023-07-23 15:29:00+00:00,315.7097,17.6,12.97,47.84626,-54.09684
2023-07-23 15:39:00+00:00,314.8113,17.48,12.97,47.84626,-54.09684
2023-07-23 15:49:00+00:00,317.5497,17.55,12.97,47.84626,-54.09684
2023-07-23 15:59:00+00:00,315.0464,17.86,12.97,47.84626,-54.09684
2023-07-23 16:09:00+00:00,310.4947,17.72,12.97,47.84626,-54.09684
2023-07-23 16:19:00+00:00,310.8463,17.5,13.29,47.84626,-54.09684
2023-07-23 16:29:00+00:00,310.5647,17.85,13.29,47.84626,-54.09684
2023-07-23 16:39:00+00:00,303.3713,18.1,13.29,47.84626,-54.09684
2023-07-23 16:49:00+00:00,300.2996,17.8,13.29,47.84626,-54.09684
2023-07-23 16:59:00+00:00,301.4798,17.93,13.29,47.84626,-54.09684
2023-07-23 17:09:00+00:00,298.8497,18.38,13.29,47.84626,-54.09684
2023-07-23 17:19:00+00:00,292.1213,18.17,13.13,47.84626,-54.09684
2023-07-23 17:29:00+00:00,288.2397,18.01,13.13,47.84626,-54.09684
2023-07-23 17:39:00+00:00,287.5247,18.18,13.13,47.84626,-54.09684
2023-07-23 17:49:00+00:00,281.108,18.7,13.13,47.84626,-54.09684
2023-07-23 17:59:00+00:00,272.5714,18.4,13.13,47.84626,-54.09684
2023-07-23 18:09:00+00:00,268.2198,18.4,13.13,47.84626,-54.09684
2023-07-23 18:19:00+00:00,261.8131,18.4,12.89,47.84626,-54.09684
2023-07-23 18:29:00+00:00,250.2347,19.28,12.89,47.84626,-54.09684
2023-07-23 18:39:00+00:00,241.8814,18.75,12.89,47.84626,-54.09684
2023-07-23 18:49:00+00:00,240.3464,18.21,12.89,47.84626,-54.09684
2023-07-23 18:59:00+00:00,233.9014,18.51,12.89,47.84626,-54.09684
2023-07-23 19:09:00+00:00,226.8247,18.71,12.89,47.84626,-54.09684
2023-07-23 19:19:00+00:00,224.4564,18.6,12.73,47.84626,-54.09684
2023-07-23 19:29:00+00:00,222.5931,18.45,12.73,47.84626,-54.09684
2023-07-23 19:39:00+00:00,216.8414,18.7,12.73,47.84626,-54.09684
2023-07-23 19:49:00+00:00,211.6047,18.71,12.73,47.84626,-54.09684
2023-07-23 19:59:00+00:00,209.5215,18.4,12.73,47.84626,-54.09684
2023-07-23 20:09:00+00:00,207.8331,18.5,12.73,47.84626,-54.09684
2023-07-23 20:19:00+00:00,202.6931,19.16,12.65,47.84626,-54.09684
2023-07-23 20:29:00+00:00,199.778,19.3,12.65,47.84626,-54.09684
2023-07-23 20:39:00+00:00,200.6931,19.26,12.65,47.84626,-54.09684
2023-07-23 20:49:00+00:00,198.8298,19.37,12.65,47.84626,-54.09684
2023-07-23 20:59:00+00:00,197.7882,19.57,12.65,47.84626,-54.09684
2023-07-23 21:09:00+00:00,200.3315,19.7,12.65,47.84626,-54.09684
2023-07-23 21:19:00+00:00,200.9081,19.86,12.57,47.84626,-54.09684
2023-07-23 21:29:00+00:00,199.2715,20.0,12.57,47.84626,-54.09684
2023-07-23 21:39:00+00:00,201.9364,19.6,12.57,47.84626,-54.09684
2023-07-23 21:49:00+00:00,207.3231,19.4,12.57,47.84626,-54.09684
2023-07-23 21:59:00+00:00,206.7448,19.34,12.57,47.84626,-54.09684
2023-07-23 22:09:00+00:00,207.3781,19.5,12.57,47.84626,-54.09684
2023-07-23 22:19:00+00:00,214.6864,19.33,12.57,47.84626,-54.09684
2023-07-23 22:29:00+00:00,215.9097,18.9,12.57,47.84626,-54.09684
2023-07-23 22:39:00+00:00,216.1748,19.31,12.57,47.84626,-54.09684
2023-07-23 22:49:00+00:00,222.7248,19.99,12.57,47.84626,-54.09684
2023-07-23 22:59:00+00:00,228.3297,18.73,12.57,47.84626,-54.09684
2023-07-23 23:09:00+00:00,226.4882,19.38,12.57,47.84626,-54.09684
2023-07-23 23:19:01+00:00,228.6165,19.26,12.57,47.84626,-54.09684
2023-07-23 23:29:01+00:00,233.5614,18.7,12.57,47.84626,-54.09684
2023-07-23 23:39:01+00:00,237.4664,18.9,12.57,47.84626,-54.09684
2023-07-23 23:49:01+00:00,239.8998,19.35,12.57,47.84626,-54.09684
2023-07-23 23:59:01+00:00,243.9198,19.4,12.57,47.84626,-54.09684
